Location: Foulognes
(49.1413°N, 0.8183°W)
Time: 21:32:24
(UTC+00:00)

ATLAS 3B R/B - Pass Details

Date: 21 October 2019
Orbit: 1029 x 1166 km, 63.8° (Epoch: 10 November)

Event Time Altitude Azimuth Distance (km) Brightness Sun altitude
Rises 18:24:47 0° 177° (S) 3,827 5.6 -14.2°
Reaches altitude 10° 18:27:51 10° 166° (SSE) 2,859 4.8 -14.7°
Maximum altitude 18:33:13 26° 112° (ESE) 1,915 3.5 -15.5°
Enters shadow 18:35:05 23° 87° (E) 2,050 3.6 -15.8°
